Location: Caltech
(34.1382°N, 118.1253°W)
Time: 14:14:26
(UTC-07:00)

Iridium 21 - Visible Passes

Search period start: 30 July 2014 00:00
Search period end: 09 August 2014 00:00
Orbit: 776 x 779 km, 86.4° (Epoch: 30 July)

Date Brightness Start Highest point End Pass type
(mag) Time Alt. Az. Time Alt. Az. Time Alt. Az.
30 Jul 7.4 00:41:12 26° N 00:41:12 26° N 00:43:26 10° N visible
31 Jul 7.6 00:07:47 20° NNE 00:07:47 20° NNE 00:09:36 10° NNE visible
31 Jul 8.0 01:48:16 14° NW 01:48:16 14° NW 01:49:23 10° NNW visible
31 Jul 8.0 23:34:22 13° NE 23:34:22 13° NE 23:35:11 10° NE visible
01 Aug 7.7 01:14:51 21° NNW 01:14:51 21° NNW 01:16:44 10° NNW visible
02 Aug 7.5 00:41:25 25° N 00:41:25 25° N 00:43:32 10° N visible
03 Aug 7.6 00:07:59 23° NNE 00:07:59 23° NNE 00:09:56 10° NNE visible
03 Aug 7.8 23:34:33 17° NE 23:34:33 17° NE 23:35:54 10° NNE visible
04 Aug 7.9 01:15:01 16° NW 01:15:01 16° NW 01:16:24 10° NNW visible
05 Aug 7.7 00:41:35 22° NNW 00:41:35 22° NNW 00:43:29 10° N visible
06 Aug 7.6 00:08:08 24° N 00:08:08 24° N 00:10:07 10° N visible
06 Aug 7.6 23:34:41 20° NNE 23:34:41 20° NNE 23:36:22 10° NNE visible
07 Aug 8.2 01:15:09 12° NW 01:15:09 12° NW 01:15:44 10° NW visible
07 Aug 7.9 23:01:14 14° NE 23:01:14 14° NE 23:02:06 10° NNE visible
08 Aug 7.9 00:41:42 18° NNW 00:41:42 18° NNW 00:43:17 10° NNW visible
